Temp
22 22 22 22 22 23 23 23 23 24 24 24 24 24 25 25 25 25 25 25 25 25 25 25 25 25 24 24 24 24 23 23 23 23 23 23 23 23 23 24 24 24
22 22 22 22 22 22 23 23 23 24 24 24 25 25 25 25 25 25 25 25 25 25 25 25 25 25 24 24 24 24 23 23 23 23 23 23 23 23 23 23 24 24
22 22 22 22 22 23 23 23 23 23 24 24 24 25 25 25 25 25 25 25 25 25 25 25 25 25 25 24 24 24 23 23 24 24 23 23 23 23 23 23 23 24
22 22 22 22 23 23 23 22 23 23 23 24 24 24 24 24 24 24 24 25 25 25 25 25 25 25 25 25 24 24 23 23 24 24 23 23 23 23 23 23 23 23
22 22 22 23 23 22 22 22 23 23 23 23 24 24 24 24 24 24 24 24 24 24 25 25 25 25 24 24 24 23 23 23 23 24 24 23 23 23 23 24 24 23
22 22 22 22 23 22 22 23 23 23 23 23 23 24 24 24 24 24 24 24 24 24 24 24 25 25 24 24 24 23 22 23 23 23 23 23 23 23 23 24 24 23
23 23 23 22 22 22 23 23 23 23 23 23 23 23 24 24 24 24 24 24 24 24 24 24 24 24 24 24 23 23 22 22 23 23 23 23 23 23 24 24 24 24
23 23 23 23 23 23 23 23 23 23 23 23 23 23 24 24 24 24 24 24 24 24 24 24 24 24 24 24 24 23 23 23 23 23 22 23 23 23 23 23 24 23
23 23 23 23 23 23 23 23 23 23 23 23 23 23 23 24 24 24 24 24 24 24 24 24 24 24 24 24 24 24 23 23 23 23 23 23 23 23 23 23 23 23
23 23 23 23 23 23 23 23 23 23 23 23 23 23 23 24 24 24 24 24 24 24 24 24 24 24 24 24 24 24 24 23 23 23 23 23 23 23 23 23 23 23
23 23 23 23 23 24 24 24 24 23 23 23 23 23 23 23 24 24 24 24 24 24 24 24 24 24 24 24 24 24 24 24 24 24 24 24 24 24 24 23 24 24
24 24 24 23 24 24 24 24 24 24 23 23 23 23 23 23 23 23 23 24 24 24 24 24 24 24 24 24 24 24 24 24 24 24 24 24 24 24 24 24 24 24
24 24 24 24 24 24 24 24 24 24 24 23 23 23 23 23 23 23 23 24 24 24 24 24 24 24 24 24 24 24 24 24 24 24 24 24 24 24 24 24 24 24
24 24 24 24 24 24 24 24 24 24 24 23 23 23 23 24 24 23 23 24 24 24 24 24 24 24 24 24 24 24 24 23 24 24 23 24 24 24 24 24 24 23
24 24 24 24 24 23 23 24 24 24 23 23 23 23 24 24 24 24 23 23 23 23 23 23 23 23 24 24 24 24 24 23 23 23 23 23 23 23 24 24 24 24
24 24 24 23 23 23 23 23 23 23 23 23 23 23 23 23 23 23 23 23 23 23 23 23 23 23 24 24 24 24 23 23 23 23 23 23 23 23 23 24 24 24
24 24 24 23 23 23 23 23 23 23 23 23 23 23 23 23 23 23 23 24 24 23 23 23 23 24 24 24 24 24 23 23 23 23 23 23 23 23 23 24 24 24
24 24 23 23 23 23 23 23 23 23 23 23 23 23 23 23 23 23 23 23 24 24 23 23 23 24 24 24 24 24 24 23 23 23 23 23 23 23 23 23 24 24
24 23 23 23 23 23 23 23 23 23 23 23 23 23 23 23 23 23 23 23 23 23 24 24 24 24 24 24 24 24 24 23 23 23 23 23 23 23 23 23 23 23
24 24 24 23 23 23 23 23 23 23 23 23 23 23 23 23 23 23 23 23 23 23 23 24 24 24 24 24 24 24 23 23 23 23 23 23 23 23 23 23 23 23
24 24 24 23 23 23 23 23 23 23 23 23 23 23 23 23 23 23 23 23 23 23 23 23 24 24 24 24 24 24 23 23 23 23 23 23 23 23 23 23 23 23
24 24 24 24 23 23 23 23 23 23 23 23 23 24 23 23 23 23 23 23 23 23 23 23 24 24 24 23 23 23 23 23 23 23 22 23 23 23 23 23 23 23
24 24 24 24 24 23 23 23 23 23 23 23 23 24 24 24 23 23 23 23 23 23 23 23 24 24 24 23 23 23 23 23 22 22 22 22 23 23 23 23 23 23
24 24 24 24 24 24 24 24 23 23 23 23 23 24 24 24 24 24 23 23 23 23 23 23 24 24 23 23 23 23 23 23 23 22 22 22 23 23 23 23 23 23
24 24 24 24 24 24 24 24 24 24 24 23 23 24 24 24 24 24 24 24 24 24 24 23 24 24 24 23 23 23 23 23 22 22 22 22 23 23 23 23 23 23
25 24 24 24 24 24 24 24 24 24 24 24 24 24 24 24 24 24 24 24 24 24 24 24 24 24 24 24 23 23 23 23 22 22 22 23 23 23 23 23 23 23
Height
819 821 824 826 829 831 833 835 837 839 841 843 845 846 848 850 852 854 855 857 859 860 861 862 863 865 866 867 868 869 870 870 871 872 873 874 874 875 876 876 877 878
816 819 821 824 826 828 830 832 834 836 838 840 842 844 846 848 850 852 853 855 857 858 859 860 861 863 864 865 866 867 868 868 869 870 871 872 873 873 874 875 875 876
813 816 818 821 823 825 828 830 832 834 836 838 840 842 844 846 848 850 851 853 854 856 857 858 859 860 862 863 864 865 866 867 867 868 869 870 871 872 872 873 874 874
810 813 815 818 820 823 825 828 830 832 834 836 838 840 841 843 846 847 849 851 852 854 855 856 857 858 860 861 862 863 864 864 865 866 867 868 869 870 871 872 872 873
806 809 812 815 817 820 822 824 827 829 831 833 835 837 839 841 843 845 847 848 850 851 853 854 855 856 858 859 860 861 862 863 863 864 865 866 867 868 868 869 870 871
803 806 809 812 814 817 819 821 824 826 828 830 832 834 836 838 841 842 844 845 847 849 850 851 852 854 855 856 858 859 860 861 861 862 863 863 864 865 866 867 868 869
799 802 805 809 811 814 816 818 821 823 825 828 830 832 834 836 838 839 841 843 845 846 847 849 850 851 853 854 856 857 858 859 859 860 861 861 862 863 864 865 865 866
796 799 802 805 808 811 813 816 818 820 823 825 827 829 831 833 835 836 838 840 842 843 844 846 847 849 850 852 853 854 855 856 857 858 859 859 860 860 861 862 863 863
793 795 799 802 805 808 810 812 815 817 820 822 824 826 828 830 832 833 835 837 838 840 841 843 845 846 848 849 850 851 852 853 854 855 856 857 857 858 859 860 861 861
789 792 795 798 801 804 806 809 812 814 816 818 821 823 825 826 828 830 832 833 835 837 838 840 842 843 845 846 847 848 849 851 852 852 853 854 854 855 856 857 858 858
785 788 791 794 797 800 802 805 808 811 813 815 818 820 822 823 825 827 829 830 832 834 835 837 838 840 842 843 844 846 847 848 849 849 850 851 851 852 853 854 855 855
781 784 787 790 793 796 799 802 805 807 809 811 814 816 818 820 822 823 825 827 828 830 832 833 835 837 839 840 842 843 844 845 846 846 847 848 848 849 850 851 852 852
776 780 782 785 788 792 795 798 801 803 805 807 810 813 815 817 818 820 821 823 825 827 829 830 832 834 835 837 838 840 841 842 843 844 844 845 846 846 847 848 849 849
772 775 778 781 784 787 791 794 796 799 801 804 806 809 811 813 815 816 818 820 822 823 825 827 828 830 832 833 835 836 838 839 840 841 842 842 843 844 845 845 846 847
768 771 774 778 780 783 787 790 793 795 798 800 802 804 807 809 811 813 815 816 818 819 822 823 825 826 827 829 831 832 834 836 837 838 839 840 840 841 841 842 842 843
763 767 770 773 777 779 783 786 789 792 794 796 798 800 803 805 808 810 811 813 814 816 818 819 820 821 822 824 827 829 831 833 834 835 836 837 837 838 838 838 839 840
760 763 767 770 773 776 779 782 785 788 790 793 795 797 800 802 804 806 807 809 811 812 814 815 816 816 818 820 823 825 828 830 831 832 833 833 834 834 835 835 836 836
756 760 763 766 769 772 775 778 782 784 787 789 791 793 796 798 800 802 803 806 808 809 810 811 811 812 814 816 818 821 824 826 828 829 830 830 830 831 831 832 832 833
753 757 760 763 765 769 772 775 778 780 782 785 787 790 792 794 796 798 800 802 804 805 806 807 807 808 809 812 814 817 819 822 825 826 826 827 827 827 828 828 829 829
750 753 756 759 762 765 769 771 774 776 779 782 784 786 788 790 792 794 796 797 799 800 802 803 804 804 805 807 810 812 815 818 820 822 823 823 824 824 824 824 825 826
746 749 753 756 759 762 765 768 770 772 775 778 781 782 784 786 788 790 792 793 795 797 798 799 800 801 802 804 806 808 812 814 816 818 819 819 820 820 820 821 821 822
742 746 749 752 756 759 761 764 766 768 771 774 776 779 780 782 784 786 788 790 791 793 795 795 796 797 798 800 802 805 808 810 812 813 814 815 816 816 817 817 817 818
739 742 746 749 752 755 757 760 762 765 767 770 773 775 777 778 780 782 784 786 787 789 790 791 791 793 794 796 799 801 804 806 807 809 810 811 812 812 813 813 813 814
736 739 742 745 748 750 753 756 758 761 763 766 768 771 773 775 776 778 780 781 783 784 786 787 788 789 790 792 795 797 800 802 803 805 806 806 807 809 809 809 809 809
733 736 739 741 743 746 749 751 754 757 759 762 764 767 769 771 773 774 776 777 778 780 781 783 784 785 786 788 790 793 795 797 800 801 801 802 803 804 805 804 804 805
729 732 735 737 740 742 745 747 750 753 756 758 761 763 766 767 769 771 772 773 774 776 777 778 779 781 782 783 785 788 790 793 795 796 797 798 799 800 800 800 800 800
Wind_Speed
32 30 30 28 28 27 26 28 30 29 30 29 28 29 29 29 28 26 26 25 23 22 21 20 19 18 18 16 15 14 14 15 15 14 12 11 11 12 13 13 14 14
32 30 31 28 27 29 29 30 31 31 31 31 30 29 29 29 28 27 26 26 25 23 22 21 20 19 19 17 16 14 12 13 14 14 12 11 12 13 13 13 13 15
33 31 32 29 28 31 30 28 30 32 31 31 31 30 29 28 28 27 26 26 26 24 23 23 21 20 20 19 17 15 13 14 15 16 13 11 11 13 14 13 13 14
34 32 32 30 28 29 27 26 29 31 30 30 31 30 29 28 27 27 27 26 26 25 24 24 22 22 21 20 19 16 13 13 15 17 15 12 11 12 14 14 14 14
35 33 32 30 27 26 27 28 29 29 30 30 31 30 29 29 27 27 27 27 27 26 26 25 24 23 22 22 20 16 12 12 14 16 17 15 13 11 13 16 16 15
35 35 34 32 29 28 30 31 30 30 30 29 30 31 29 28 28 27 27 27 27 26 26 26 26 25 23 22 20 15 12 12 13 14 16 18 17 15 16 18 18 17
35 35 35 32 29 29 30 30 30 31 30 28 29 31 30 29 28 28 28 27 26 26 26 26 26 26 25 22 20 16 13 12 12 12 13 15 17 18 18 19 19 19
34 34 34 32 28 28 29 29 29 31 31 29 29 30 30 30 29 28 29 28 27 26 26 27 26 26 26 24 23 21 17 14 13 13 13 14 15 17 17 17 17 17
33 31 31 31 29 28 29 28 28 29 31 32 30 28 29 31 29 28 29 28 27 27 27 27 26 26 26 25 25 25 22 19 17 16 15 15 16 17 17 17 16 15
32 30 29 29 29 28 28 28 26 25 29 32 30 26 27 30 30 29 28 28 28 27 27 27 27 26 25 25 25 25 24 23 22 20 19 18 19 19 18 18 18 18
31 30 29 29 30 28 28 28 26 24 27 30 29 26 25 27 29 29 29 28 28 28 28 28 28 27 26 26 25 25 25 24 23 23 23 23 23 23 21 20 20 20
31 30 29 30 31 29 27 28 26 24 26 28 28 27 25 25 27 29 29 29 29 28 28 29 28 28 28 27 26 25 25 25 24 24 25 25 24 23 22 22 22 22
31 31 31 31 31 30 28 27 27 26 26 27 28 27 25 25 25 27 29 30 30 29 29 29 29 29 29 29 28 26 26 26 25 25 24 25 25 24 22 21 22 22
32 32 32 32 32 34 32 28 27 28 27 27 27 27 27 26 25 25 27 29 30 30 30 29 30 30 30 30 30 29 28 27 26 25 24 24 25 24 23 22 22 21
35 33 33 34 35 36 35 31 28 28 27 27 28 29 28 27 25 24 25 27 28 29 29 28 29 30 31 31 30 30 29 26 25 25 25 24 23 23 22 23 24 21
40 37 35 35 35 36 36 33 29 28 28 28 30 30 29 27 25 24 24 25 26 27 27 27 28 31 32 32 31 30 28 25 24 25 26 24 23 23 22 23 24 23
42 38 35 35 36 35 36 36 33 29 29 29 30 30 29 27 26 26 26 25 24 24 25 26 29 33 34 33 33 32 29 25 23 23 25 25 24 24 24 23 23 22
38 35 34 34 36 36 36 37 35 31 29 29 30 30 29 28 27 28 28 26 24 24 24 25 29 33 34 34 33 33 31 28 24 21 21 23 23 23 23 23 22 21
34 32 33 33 36 36 36 36 34 31 30 29 29 29 28 28 28 28 27 27 26 25 25 26 27 31 34 35 34 33 32 30 27 23 21 22 22 22 23 23 23 22
34 34 34 34 35 36 34 33 32 32 30 28 27 27 27 28 29 27 27 28 28 28 27 26 27 30 33 34 34 33 32 31 30 27 24 23 23 23 24 24 25 25
34 34 32 32 33 34 33 32 31 31 30 28 26 26 27 30 30 28 27 29 30 29 27 26 28 31 33 33 33 33 31 30 31 30 28 25 24 25 26 27 28 28
34 33 31 30 31 31 31 30 29 30 31 29 27 25 25 27 28 28 27 28 29 28 27 27 28 31 33 34 33 32 31 30 32 33 31 28 26 26 27 29 30 29
32 32 30 30 30 29 29 29 29 30 30 29 27 25 23 24 25 26 26 27 27 27 27 28 28 30 33 34 33 32 31 31 32 33 32 30 29 28 28 29 31 31
32 32 31 30 29 29 29 29 28 29 29 28 27 26 25 24 24 25 25 26 27 27 28 28 28 29 33 34 34 33 32 32 33 33 31 30 29 29 29 31 32 33
33 32 32 31 29 29 29 29 29 28 28 27 27 26 25 24 23 23 23 24 26 27 29 29 28 27 30 33 34 34 33 33 33 31 29 28 28 27 28 30 32 34
32 32 33 31 29 30 30 30 29 28 26 25 25 24 24 23 22 22 22 23 23 24 27 28 27 27 29 32 34 34 33 34 33 30 27 26 26 26 26 27 28 30
Wind_Direction
209 208 209 210 212 213 214 217 218 219 222 224 226 231 234 236 238 238 238 240 243 247 247 248 249 248 248 253 256 252 250 251 252 253 249 247 250 253 255 257 255 255
208 209 210 209 212 216 218 220 221 221 224 227 229 232 235 237 239 240 240 240 242 245 247 248 250 249 247 249 253 250 246 246 247 247 244 242 246 250 253 256 257 258
208 208 209 209 212 217 218 219 222 224 225 228 230 232 235 236 237 239 240 240 241 244 247 249 250 250 248 247 250 249 245 247 248 247 245 242 243 248 251 251 253 257
208 208 209 210 212 215 214 214 220 223 223 227 231 232 233 234 235 238 240 240 241 242 245 248 249 251 250 247 247 246 243 245 248 248 246 243 242 245 249 251 252 255
208 208 208 209 208 209 210 214 218 220 221 225 229 230 231 233 234 236 238 240 241 242 244 246 249 250 250 248 245 241 236 238 245 246 244 244 244 242 248 254 256 257
206 209 209 208 207 208 212 216 218 219 220 223 226 229 231 232 234 235 238 240 240 240 241 243 246 248 248 246 241 236 232 234 241 244 243 244 246 247 252 257 259 259
205 208 210 209 208 210 213 215 217 219 220 220 224 228 230 231 233 236 238 240 240 239 240 242 245 246 246 244 240 237 234 233 237 239 241 244 247 249 252 256 259 261
205 207 209 208 206 209 212 213 215 219 220 220 223 228 231 232 234 236 239 241 240 240 242 243 245 245 244 244 243 242 238 234 234 235 238 242 245 246 247 251 256 258
203 204 205 204 204 207 210 211 213 216 219 222 224 225 229 232 233 235 238 241 241 241 243 244 245 245 244 244 246 247 244 240 239 238 237 238 242 245 248 250 250 252
201 201 201 202 204 207 209 210 210 210 216 222 222 220 225 231 233 234 237 240 240 240 242 243 244 245 244 245 247 248 248 246 246 246 243 244 248 251 253 252 253 256
200 199 199 201 203 206 208 208 207 206 212 219 219 217 221 227 231 233 234 237 238 239 241 243 244 244 244 246 247 249 251 250 250 251 251 252 255 257 258 257 259 261
198 198 199 202 203 205 206 206 205 205 209 215 216 216 217 221 228 230 232 235 236 237 240 242 244 244 245 247 247 248 252 252 251 253 254 256 258 259 260 261 263 264
196 197 199 201 202 204 204 204 205 206 208 212 214 214 215 218 221 226 230 235 237 237 239 241 243 244 245 247 247 247 250 251 251 251 252 255 258 258 258 258 261 263
195 197 199 201 203 207 207 204 205 207 208 210 212 213 215 218 218 220 227 232 235 236 237 239 241 243 244 245 246 247 247 248 249 249 250 252 257 259 258 258 258 258
196 198 200 203 205 208 209 205 205 207 208 210 213 215 216 218 218 217 220 227 231 233 234 234 236 240 242 242 244 245 245 244 245 247 248 248 252 255 256 258 259 256
201 201 201 203 205 208 209 208 207 208 209 211 214 217 218 217 217 215 217 222 226 228 230 231 234 239 241 242 242 243 243 241 241 245 247 247 248 250 252 255 257 257
203 202 202 204 205 207 209 210 210 209 210 212 214 217 218 216 216 216 218 221 222 224 226 228 234 240 243 243 244 244 241 238 238 242 245 246 246 248 251 252 254 256
201 200 202 204 205 207 209 211 211 209 210 212 213 216 216 215 216 218 221 222 221 222 224 226 234 241 244 244 245 245 243 239 237 238 240 242 243 244 247 250 251 253
196 196 199 202 204 207 208 210 209 209 210 211 213 215 214 215 218 219 220 221 220 222 224 225 233 241 245 246 245 245 245 241 238 238 238 240 240 241 244 247 249 252
196 198 199 201 204 205 206 207 208 209 211 212 213 213 212 215 218 218 219 220 221 223 225 227 231 238 244 246 246 245 244 242 240 239 239 241 241 242 244 247 250 253
196 198 199 200 202 203 204 205 207 208 210 210 211 211 213 216 218 218 219 222 224 225 226 229 233 237 242 245 245 244 242 242 242 240 239 241 242 243 245 249 252 253
195 196 197 198 199 201 203 204 205 208 209 209 210 212 214 217 218 219 220 222 225 225 227 231 234 237 240 242 244 244 240 239 240 240 239 240 242 243 245 248 252 252
194 194 196 197 198 199 202 204 205 208 209 209 209 211 214 215 217 219 220 223 225 224 225 230 234 237 239 241 242 241 237 235 236 238 238 238 240 242 244 247 251 252
194 195 196 197 198 200 202 204 206 208 210 209 210 212 215 217 218 219 220 222 224 224 226 230 234 237 240 241 242 239 236 234 235 235 235 237 239 241 243 247 251 253
195 197 198 199 199 201 203 205 207 209 210 209 210 213 216 218 219 219 219 221 224 225 228 231 234 237 241 243 243 240 236 234 233 233 233 235 237 239 242 246 250 253
196 198 200 200 201 203 205 206 208 208 208 208 209 212 216 218 219 219 220 223 225 226 228 231 232 234 239 243 244 241 237 234 232 230 231 233 234 236 239 243 246 249